QPF
0.00 0.00 0.00 0.00 0.00 0.00 0.00 0.00 0.00 0.00 0.00 0.00 0.00 0.00 0.00 0.00 0.00 0.00 0.00 0.00 0.00 0.00 0.00 0.00 0.00 0.00 0.00 0.01 0.01 0.01 0.01 0.00 0.00 0.00 0.00 0.00 0.00 0.00 0.00 0.00 0.00 0.00 0.00
0.00 0.00 0.00 0.00 0.00 0.00 0.00 0.00 0.00 0.00 0.00 0.00 0.00 0.00 0.00 0.00 0.00 0.00 0.00 0.00 0.00 0.00 0.00 0.00 0.00 0.01 0.01 0.01 0.02 0.02 0.02 0.01 0.00 0.00 0.00 0.01 0.01 0.00 0.00 0.00 0.00 0.00 0.00
0.01 0.01 0.01 0.01 0.01 0.01 0.01 0.01 0.00 0.00 0.00 0.00 0.00 0.00 0.00 0.00 0.00 0.00 0.00 0.00 0.00 0.00 0.00 0.00 0.00 0.01 0.01 0.02 0.02 0.02 0.02 0.01 0.01 0.01 0.01 0.01 0.01 0.01 0.01 0.01 0.01 0.01 0.01
0.01 0.01 0.01 0.01 0.02 0.02 0.01 0.01 0.01 0.00 0.01 0.00 0.00 0.00 0.00 0.00 0.00 0.00 0.00 0.00 0.00 0.00 0.00 0.00 0.00 0.00 0.00 0.01 0.02 0.02 0.02 0.02 0.01 0.01 0.01 0.01 0.01 0.01 0.02 0.02 0.02 0.02 0.02
0.01 0.01 0.01 0.01 0.01 0.01 0.01 0.01 0.01 0.01 0.01 0.00 0.00 0.00 0.00 0.00 0.00 0.00 0.00 0.00 0.00 0.00 0.00 0.00 0.00 0.00 0.00 0.00 0.01 0.02 0.02 0.02 0.02 0.02 0.02 0.02 0.02 0.01 0.01 0.02 0.02 0.02 0.03
0.02 0.02 0.01 0.01 0.01 0.01 0.01 0.01 0.01 0.00 0.00 0.00 0.00 0.00 0.00 0.00 0.00 0.00 0.00 0.00 0.00 0.00 0.00 0.00 0.00 0.00 0.00 0.00 0.00 0.01 0.01 0.02 0.03 0.03 0.03 0.03 0.03 0.02 0.02 0.02 0.03 0.03 0.04
0.03 0.03 0.03 0.02 0.02 0.02 0.02 0.02 0.01 0.01 0.01 0.01 0.00 0.00 0.00 0.00 0.00 0.00 0.00 0.00 0.00 0.00 0.00 0.00 0.00 0.00 0.00 0.00 0.00 0.00 0.01 0.02 0.03 0.04 0.03 0.03 0.03 0.03 0.04 0.04 0.05 0.04 0.05
0.04 0.04 0.04 0.04 0.04 0.05 0.05 0.04 0.03 0.03 0.02 0.02 0.01 0.01 0.01 0.00 0.00 0.00 0.00 0.00 0.00 0.00 0.00 0.00 0.00 0.00 0.00 0.00 0.00 0.01 0.01 0.01 0.02 0.03 0.04 0.04 0.04 0.05 0.05 0.06 0.07 0.08 0.08
0.09 0.07 0.07 0.06 0.05 0.06 0.06 0.06 0.05 0.04 0.03 0.02 0.02 0.02 0.02 0.01 0.00 0.00 0.00 0.00 0.00 0.00 0.00 0.00 0.00 0.00 0.00 0.00 0.00 0.01 0.01 0.01 0.01 0.02 0.03 0.04 0.05 0.05 0.06 0.07 0.08 0.11 0.12
0.14 0.14 0.12 0.11 0.08 0.06 0.06 0.07 0.07 0.06 0.05 0.04 0.04 0.03 0.03 0.02 0.02 0.01 0.00 0.00 0.00 0.00 0.00 0.00 0.00 0.00 0.00 0.00 0.00 0.01 0.01 0.01 0.01 0.02 0.04 0.04 0.04 0.05 0.06 0.06 0.07 0.08 0.09
0.19 0.17 0.15 0.15 0.13 0.11 0.08 0.07 0.07 0.07 0.06 0.05 0.04 0.03 0.02 0.02 0.02 0.02 0.01 0.00 0.00 0.00 0.00 0.00 0.00 0.00 0.00 0.00 0.00 0.01 0.01 0.01 0.02 0.02 0.02 0.04 0.05 0.06 0.06 0.05 0.05 0.05 0.05
0.22 0.21 0.20 0.18 0.16 0.14 0.12 0.11 0.09 0.07 0.05 0.04 0.04 0.03 0.03 0.02 0.02 0.02 0.02 0.01 0.01 0.00 0.00 0.00 0.00 0.00 0.00 0.00 0.00 0.01 0.01 0.01 0.01 0.01 0.02 0.03 0.05 0.06 0.05 0.04 0.04 0.04 0.04
0.28 0.25 0.24 0.22 0.20 0.18 0.14 0.12 0.10 0.08 0.07 0.06 0.06 0.05 0.04 0.04 0.04 0.04 0.04 0.03 0.02 0.01 0.00 0.00 0.00 0.00 0.00 0.00 0.01 0.01 0.01 0.01 0.01 0.01 0.02 0.02 0.02 0.02 0.02 0.02 0.03 0.04 0.04
0.29 0.25 0.26 0.27 0.26 0.24 0.20 0.17 0.15 0.12 0.10 0.09 0.08 0.07 0.06 0.05 0.06 0.06 0.06 0.06 0.05 0.03 0.01 0.01 0.00 0.00 0.00 0.01 0.01 0.01 0.00 0.01 0.01 0.01 0.01 0.01 0.01 0.01 0.00 0.01 0.01 0.01 0.02
0.24 0.21 0.20 0.23 0.22 0.20 0.19 0.17 0.15 0.14 0.12 0.10 0.08 0.07 0.06 0.05 0.05 0.06 0.06 0.06 0.05 0.04 0.02 0.01 0.01 0.01 0.01 0.01 0.01 0.01 0.00 0.01 0.01 0.01 0.01 0.01 0.01 0.01 0.00 0.00 0.00 0.00 0.01
0.20 0.19 0.19 0.18 0.18 0.17 0.16 0.15 0.14 0.13 0.12 0.11 0.09 0.07 0.06 0.04 0.04 0.04 0.04 0.04 0.04 0.04 0.03 0.02 0.02 0.01 0.01 0.01 0.01 0.01 0.01 0.01 0.01 0.01 0.01 0.01 0.01 0.01 0.01 0.01 0.01 0.01 0.01
0.14 0.14 0.13 0.14 0.14 0.14 0.12 0.12 0.12 0.12 0.11 0.09 0.08 0.08 0.07 0.06 0.05 0.04 0.04 0.03 0.03 0.03 0.03 0.02 0.01 0.01 0.01 0.01 0.01 0.01 0.01 0.01 0.01 0.02 0.01 0.02 0.02 0.02 0.02 0.02 0.02 0.02 0.01
0.09 0.10 0.09 0.10 0.11 0.10 0.10 0.09 0.09 0.09 0.08 0.08 0.07 0.05 0.05 0.05 0.04 0.04 0.03 0.03 0.03 0.02 0.02 0.02 0.01 0.01 0.01 0.01 0.01 0.01 0.01 0.01 0.01 0.01 0.01 0.01 0.01 0.01 0.01 0.01 0.01 0.01 0.01
0.04 0.05 0.05 0.06 0.06 0.06 0.06 0.05 0.05 0.05 0.05 0.05 0.04 0.04 0.03 0.03 0.04 0.03 0.03 0.02 0.02 0.02 0.02 0.01 0.01 0.01 0.01 0.01 0.01 0.01 0.01 0.01 0.01 0.01 0.01 0.01 0.01 0.01 0.01 0.01 0.01 0.01 0.01
0.02 0.02 0.03 0.03 0.04 0.04 0.04 0.03 0.03 0.03 0.03 0.02 0.02 0.02 0.01 0.01 0.02 0.02 0.02 0.02 0.02 0.02 0.01 0.01 0.01 0.01 0.01 0.01 0.01 0.01 0.01 0.01 0.01 0.01 0.02 0.02 0.02 0.01 0.01 0.01 0.01 0.01 0.01
0.02 0.02 0.02 0.03 0.03 0.03 0.03 0.03 0.02 0.02 0.02 0.02 0.02 0.01 0.01 0.01 0.01 0.01 0.01 0.01 0.01 0.01 0.01 0.01 0.01 0.01 0.01 0.01 0.01 0.01 0.01 0.01 0.01 0.01 0.01 0.01 0.01 0.01 0.01 0.01 0.01 0.01 0.01
0.02 0.02 0.02 0.02 0.02 0.02 0.02 0.02 0.02 0.02 0.02 0.02 0.01 0.01 0.01 0.01 0.01 0.00 0.01 0.01 0.01 0.01 0.01 0.01 0.01 0.01 0.01 0.00 0.00 0.00 0.00 0.00 0.01 0.01 0.01 0.01 0.01 0.01 0.01 0.01 0.01 0.01 0.01
0.04 0.04 0.04 0.03 0.02 0.02 0.02 0.02 0.02 0.02 0.02 0.02 0.01 0.01 0.01 0.01 0.00 0.00 0.00 0.00 0.00 0.00 0.00 0.00 0.00 0.00 0.00 0.00 0.00 0.00 0.00 0.00 0.00 0.00 0.00 0.01 0.01 0.00 0.00 0.01 0.01 0.01 0.01
0.03 0.03 0.03 0.03 0.03 0.02 0.03 0.03 0.03 0.02 0.02 0.02 0.02 0.01 0.01 0.01 0.01 0.01 0.00 0.00 0.00 0.00 0.00 0.00 0.00 0.00 0.00 0.00 0.00 0.00 0.00 0.00 0.00 0.00 0.00 0.01 0.01 0.00 0.00 0.00 0.01 0.01 0.01
0.02 0.02 0.02 0.02 0.03 0.02 0.02 0.02 0.02 0.02 0.02 0.02 0.02 0.01 0.01 0.01 0.01 0.01 0.01 0.00 0.00 0.01 0.01 0.01 0.01 0.01 0.01 0.00 0.00 0.00 0.00 0.00 0.00 0.00 0.00 0.00 0.00 0.00 0.00 0.00 0.01 0.01 0.01
0.03 0.03 0.03 0.03 0.04 0.04 0.04 0.03 0.03 0.02 0.02 0.02 0.02 0.01 0.01 0.01 0.01 0.01 0.01 0.01 0.01 0.01 0.01 0.01 0.01 0.01 0.01 0.00 0.00 0.00 0.00 0.00 0.00 0.00 0.00 0.00 0.00 0.00 0.00 0.00 0.00 0.00 0.01
MSLP
1015.53 1016.01 1016.54 1017.08 1017.60 1018.07 1018.45 1018.73 1018.93 1019.06 1019.15 1019.23 1019.32 1019.43 1019.57 1019.75 1019.95 1020.15 1020.36 1020.56 1020.74 1020.90 1021.04 1021.15 1021.24 1021.30 1021.33 1021.35 1021.36 1021.37 1021.38 1021.41 1021.46 1021.53 1021.61 1021.69 1021.76 1021.80 1021.82 1021.80 1021.75 1021.67 1021.59
1015.39 1015.85 1016.37 1016.93 1017.48 1017.97 1018.38 1018.70 1018.91 1019.05 1019.14 1019.22 1019.30 1019.41 1019.54 1019.71 1019.89 1020.07 1020.25 1020.41 1020.56 1020.68 1020.80 1020.90 1020.98 1021.05 1021.10 1021.14 1021.17 1021.20 1021.22 1021.26 1021.32 1021.39 1021.48 1021.56 1021.63 1021.68 1021.71 1021.70 1021.66 1021.61 1021.55
1015.23 1015.68 1016.20 1016.77 1017.35 1017.87 1018.32 1018.66 1018.91 1019.07 1019.17 1019.25 1019.33 1019.43 1019.55 1019.68 1019.81 1019.95 1020.07 1020.18 1020.27 1020.35 1020.44 1020.52 1020.60 1020.68 1020.75 1020.81 1020.86 1020.90 1020.94 1020.98 1021.04 1021.11 1021.19 1021.27 1021.35 1021.41 1021.44 1021.45 1021.44 1021.42 1021.39
1015.07 1015.52 1016.05 1016.63 1017.22 1017.77 1018.24 1018.62 1018.89 1019.08 1019.20 1019.30 1019.38 1019.47 1019.56 1019.65 1019.73 1019.80 1019.85 1019.88 1019.91 1019.94 1019.99 1020.05 1020.14 1020.23 1020.32 1020.40 1020.47 1020.52 1020.56 1020.60 1020.64 1020.70 1020.77 1020.84 1020.92 1020.99 1021.04 1021.07 1021.09 1021.09 1021.10
1014.92 1015.38 1015.92 1016.51 1017.10 1017.66 1018.14 1018.54 1018.84 1019.05 1019.21 1019.33 1019.42 1019.51 1019.57 1019.62 1019.64 1019.64 1019.61 1019.57 1019.53 1019.51 1019.52 1019.57 1019.66 1019.76 1019.87 1019.97 1020.05 1020.10 1020.14 1020.16 1020.18 1020.21 1020.26 1020.32 1020.39 1020.46 1020.53 1020.58 1020.62 1020.66 1020.70
1014.79 1015.27 1015.81 1016.39 1016.97 1017.52 1018.00 1018.40 1018.72 1018.97 1019.16 1019.31 1019.43 1019.52 1019.57 1019.58 1019.55 1019.48 1019.38 1019.27 1019.17 1019.11 1019.10 1019.14 1019.24 1019.36 1019.48 1019.60 1019.68 1019.73 1019.75 1019.74 1019.72 1019.72 1019.73 1019.76 1019.82 1019.88 1019.96 1020.03 1020.09 1020.15 1020.22
1014.68 1015.17 1015.71 1016.27 1016.82 1017.35 1017.81 1018.21 1018.54 1018.82 1019.04 1019.23 1019.38 1019.49 1019.54 1019.54 1019.47 1019.35 1019.19 1019.03 1018.89 1018.80 1018.78 1018.83 1018.93 1019.08 1019.23 1019.35 1019.44 1019.47 1019.45 1019.40 1019.34 1019.29 1019.25 1019.25 1019.28 1019.33 1019.39 1019.46 1019.53 1019.60 1019.67
1014.56 1015.07 1015.60 1016.13 1016.65 1017.13 1017.57 1017.96 1018.30 1018.60 1018.87 1019.10 1019.30 1019.43 1019.50 1019.50 1019.41 1019.26 1019.07 1018.88 1018.72 1018.62 1018.60 1018.67 1018.80 1018.96 1019.13 1019.26 1019.34 1019.35 1019.30 1019.21 1019.09 1018.98 1018.89 1018.84 1018.82 1018.84 1018.88 1018.93 1018.99 1019.04 1019.11
1014.44 1014.96 1015.47 1015.97 1016.45 1016.89 1017.30 1017.67 1018.02 1018.35 1018.66 1018.95 1019.19 1019.36 1019.46 1019.47 1019.39 1019.24 1019.04 1018.84 1018.68 1018.59 1018.58 1018.67 1018.82 1019.01 1019.19 1019.33 1019.40 1019.39 1019.30 1019.16 1018.99 1018.82 1018.67 1018.57 1018.50 1018.48 1018.48 1018.49 1018.51 1018.53 1018.56
1014.28 1014.81 1015.32 1015.79 1016.23 1016.64 1017.03 1017.39 1017.75 1018.11 1018.46 1018.79 1019.08 1019.30 1019.44 1019.48 1019.41 1019.27 1019.09 1018.90 1018.75 1018.68 1018.70 1018.80 1018.98 1019.18 1019.37 1019.51 1019.57 1019.53 1019.41 1019.23 1019.01 1018.80 1018.60 1018.45 1018.33 1018.26 1018.21 1018.17 1018.13 1018.10 1018.08
1014.10 1014.64 1015.14 1015.60 1016.03 1016.42 1016.79 1017.15 1017.52 1017.91 1018.29 1018.67 1019.00 1019.27 1019.45 1019.52 1019.48 1019.37 1019.21 1019.04 1018.92 1018.86 1018.90 1019.02 1019.20 1019.41 1019.60 1019.73 1019.77 1019.72 1019.58 1019.37 1019.12 1018.88 1018.65 1018.45 1018.30 1018.18 1018.08 1017.98 1017.88 1017.78 1017.69
1013.88 1014.44 1014.96 1015.43 1015.85 1016.24 1016.61 1016.98 1017.37 1017.78 1018.19 1018.60 1018.97 1019.27 1019.48 1019.59 1019.59 1019.51 1019.37 1019.24 1019.13 1019.09 1019.14 1019.26 1019.43 1019.63 1019.80 1019.91 1019.94 1019.88 1019.72 1019.51 1019.26 1019.01 1018.77 1018.56 1018.38 1018.23 1018.08 1017.93 1017.77 1017.60 1017.44
1013.67 1014.26 1014.80 1015.29 1015.73 1016.13 1016.52 1016.91 1017.31 1017.73 1018.17 1018.60 1018.99 1019.31 1019.55 1019.68 1019.72 1019.67 1019.56 1019.45 1019.36 1019.33 1019.37 1019.47 1019.62 1019.78 1019.92 1020.01 1020.02 1019.95 1019.81 1019.61 1019.38 1019.15 1018.93 1018.73 1018.56 1018.39 1018.22 1018.03 1017.81 1017.58 1017.35
1013.49 1014.12 1014.70 1015.22 1015.69 1016.12 1016.52 1016.93 1017.35 1017.78 1018.22 1018.65 1019.05 1019.38 1019.64 1019.79 1019.86 1019.84 1019.76 1019.68 1019.60 1019.56 1019.57 1019.64 1019.74 1019.85 1019.95 1020.00 1020.00 1019.93 1019.81 1019.65 1019.47 1019.28 1019.11 1018.95 1018.80 1018.65 1018.47 1018.26 1018.01 1017.73 1017.44
1013.39 1014.06 1014.68 1015.24 1015.74 1016.20 1016.64 1017.05 1017.48 1017.90 1018.33 1018.75 1019.14 1019.47 1019.73 1019.91 1020.00 1020.01 1019.97 1019.90 1019.82 1019.77 1019.76 1019.77 1019.81 1019.87 1019.91 1019.92 1019.90 1019.85 1019.76 1019.64 1019.53 1019.41 1019.31 1019.21 1019.10 1018.98 1018.82 1018.60 1018.34 1018.04 1017.72
1013.41 1014.11 1014.77 1015.36 1015.90 1016.39 1016.84 1017.26 1017.68 1018.09 1018.50 1018.89 1019.26 1019.58 1019.84 1020.03 1020.15 1020.19 1020.17 1020.12 1020.06 1019.99 1019.94 1019.90 1019.88 1019.87 1019.85 1019.83 1019.80 1019.75 1019.69 1019.64 1019.60 1019.56 1019.53 1019.50 1019.45 1019.37 1019.24 1019.04 1018.79 1018.49 1018.17
1013.59 1014.30 1014.97 1015.60 1016.16 1016.66 1017.12 1017.54 1017.94 1018.33 1018.70 1019.06 1019.40 1019.70 1019.96 1020.16 1020.30 1020.37 1020.40 1020.37 1020.32 1020.24 1020.15 1020.07 1019.99 1019.91 1019.85 1019.79 1019.74 1019.70 1019.69 1019.69 1019.71 1019.75 1019.79 1019.82 1019.83 1019.79 1019.70 1019.54 1019.31 1019.03 1018.72
1013.90 1014.62 1015.29 1015.92 1016.49 1017.00 1017.45 1017.86 1018.24 1018.59 1018.92 1019.24 1019.54 1019.83 1020.08 1020.29 1020.46 1020.57 1020.63 1020.64 1020.60 1020.52 1020.42 1020.30 1020.17 1020.04 1019.93 1019.84 1019.78 1019.76 1019.77 1019.82 1019.90 1019.99 1020.09 1020.17 1020.22 1020.21 1020.15 1020.02 1019.83 1019.58 1019.32
1014.34 1015.03 1015.69 1016.31 1016.87 1017.36 1017.80 1018.19 1018.53 1018.84 1019.13 1019.41 1019.68 1019.95 1020.20 1020.42 1020.62 1020.77 1020.88 1020.92 1020.91 1020.84 1020.73 1020.59 1020.43 1020.26 1020.12 1020.01 1019.94 1019.92 1019.95 1020.03 1020.14 1020.27 1020.40 1020.50 1020.57 1020.58 1020.54 1020.44 1020.28 1020.08 1019.86
1014.85 1015.50 1016.13 1016.72 1017.26 1017.73 1018.15 1018.50 1018.81 1019.08 1019.33 1019.57 1019.81 1020.05 1020.30 1020.54 1020.77 1020.96 1021.11 1021.19 1021.21 1021.17 1021.06 1020.91 1020.73 1020.55 1020.38 1020.26 1020.18 1020.16 1020.20 1020.29 1020.42 1020.55 1020.68 1020.79 1020.85 1020.86 1020.83 1020.74 1020.61 1020.45 1020.29
1015.37 1015.98 1016.56 1017.11 1017.62 1018.06 1018.45 1018.77 1019.05 1019.28 1019.49 1019.70 1019.91 1020.14 1020.38 1020.64 1020.89 1021.12 1021.30 1021.43 1021.48 1021.46 1021.37 1021.22 1021.04 1020.84 1020.67 1020.53 1020.45 1020.43 1020.47 1020.55 1020.67 1020.79 1020.91 1020.99 1021.03 1021.02 1020.97 1020.89 1020.78 1020.67 1020.56
1015.84 1016.40 1016.94 1017.45 1017.92 1018.33 1018.68 1018.98 1019.22 1019.42 1019.60 1019.78 1019.97 1020.19 1020.43 1020.70 1020.97 1021.22 1021.44 1021.60 1021.68 1021.69 1021.61 1021.47 1021.29 1021.09 1020.91 1020.77 1020.68 1020.66 1020.68 1020.76 1020.85 1020.95 1021.03 1021.08 1021.08 1021.05 1020.98 1020.90 1020.80 1020.72 1020.65
1016.22 1016.73 1017.23 1017.70 1018.13 1018.51 1018.84 1019.11 1019.32 1019.50 1019.65 1019.81 1019.99 1020.19 1020.44 1020.70 1020.99 1021.26 1021.51 1021.69 1021.79 1021.81 1021.75 1021.62 1021.44 1021.25 1021.07 1020.92 1020.83 1020.79 1020.81 1020.86 1020.94 1021.00 1021.05 1021.06 1021.03 1020.97 1020.88 1020.79 1020.70 1020.64 1020.61
1016.46 1016.93 1017.40 1017.84 1018.24 1018.60 1018.90 1019.15 1019.34 1019.50 1019.64 1019.79 1019.95 1020.15 1020.39 1020.66 1020.96 1021.24 1021.49 1021.69 1021.81 1021.84 1021.79 1021.66 1021.49 1021.30 1021.11 1020.97 1020.87 1020.82 1020.83 1020.87 1020.92 1020.96 1020.98 1020.96 1020.91 1020.82 1020.72 1020.62 1020.54 1020.49 1020.49
1016.55 1017.00 1017.44 1017.86 1018.24 1018.58 1018.87 1019.10 1019.28 1019.43 1019.57 1019.71 1019.87 1020.07 1020.31 1020.58 1020.87 1021.16 1021.42 1021.62 1021.74 1021.78 1021.73 1021.61 1021.44 1021.25 1021.07 1020.92 1020.81 1020.77 1020.76 1020.79 1020.84 1020.87 1020.87 1020.84 1020.77 1020.67 1020.56 1020.46 1020.38 1020.34 1020.35
1016.51 1016.95 1017.37 1017.78 1018.14 1018.47 1018.74 1018.97 1019.15 1019.30 1019.43 1019.57 1019.73 1019.93 1020.18 1020.45 1020.75 1021.04 1021.30 1021.50 1021.62 1021.66 1021.61 1021.49 1021.32 1021.13 1020.96 1020.81 1020.71 1020.66 1020.66 1020.69 1020.73 1020.76 1020.76 1020.72 1020.66 1020.56 1020.45 1020.35 1020.27 1020.23 1020.24
Thickness
5695 5694 5693 5691 5690 5689 5688 5687 5687 5687 5687 5687 5686 5686 5685 5685 5684 5683 5682 5678 5676 5675 5674 5672 5671 5669 5667 5665 5663 5660 5658 5655 5653 5650 5647 5645 5642 5639 5637 5634 5631 5628 5625
5691 5689 5689 5687 5687 5685 5685 5684 5684 5683 5683 5683 5683 5682 5682 5681 5680 5679 5678 5676 5673 5672 5670 5669 5667 5666 5664 5662 5660 5657 5655 5652 5649 5646 5643 5641 5638 5635 5632 5630 5627 5624 5621
5686 5685 5684 5683 5683 5682 5681 5680 5679 5679 5679 5678 5678 5678 5678 5677 5676 5675 5674 5673 5671 5669 5667 5665 5664 5662 5660 5658 5656 5654 5651 5648 5645 5642 5639 5637 5634 5631 5628 5625 5622 5619 5615
5681 5680 5679 5679 5679 5677 5676 5676 5676 5675 5674 5673 5674 5673 5673 5672 5672 5672 5670 5669 5668 5666 5664 5662 5660 5658 5656 5654 5652 5650 5647 5644 5641 5638 5635 5632 5629 5626 5623 5620 5617 5614 5610
5676 5676 5676 5675 5674 5673 5673 5672 5671 5671 5670 5669 5668 5668 5668 5668 5667 5666 5666 5665 5663 5661 5660 5658 5655 5653 5651 5649 5647 5645 5642 5639 5637 5634 5631 5627 5624 5621 5618 5615 5612 5608 5605
5672 5672 5671 5671 5670 5669 5668 5667 5666 5665 5665 5664 5662 5661 5663 5663 5662 5662 5661 5660 5658 5656 5654 5653 5651 5649 5646 5643 5641 5639 5637 5634 5631 5629 5626 5622 5619 5616 5613 5610 5607 5603 5600
5667 5667 5667 5666 5666 5665 5665 5664 5661 5660 5658 5658 5655 5655 5657 5657 5657 5656 5656 5655 5653 5650 5648 5647 5645 5643 5641 5638 5635 5632 5630 5628 5625 5622 5620 5617 5613 5610 5607 5604 5600 5597 5594
5661 5662 5662 5661 5661 5660 5659 5659 5657 5654 5653 5652 5650 5648 5648 5651 5652 5650 5650 5648 5647 5644 5642 5640 5638 5636 5634 5632 5629 5626 5623 5621 5619 5616 5613 5610 5606 5603 5600 5597 5594 5591 5588
5656 5656 5656 5656 5655 5655 5654 5653 5652 5649 5647 5646 5645 5644 5642 5644 5646 5645 5643 5641 5639 5638 5636 5633 5631 5628 5626 5624 5622 5619 5616 5613 5611 5608 5605 5602 5599 5595 5592 5589 5587 5584 5581
5650 5650 5650 5650 5649 5649 5648 5647 5646 5645 5642 5640 5638 5638 5639 5640 5636 5636 5636 5635 5632 5630 5629 5625 5623 5620 5617 5615 5612 5609 5607 5604 5602 5599 5596 5594 5590 5587 5584 5581 5578 5576 5573
5643 5643 5643 5642 5642 5642 5642 5641 5639 5638 5637 5635 5633 5631 5629 5629 5629 5627 5627 5627 5625 5622 5620 5617 5615 5612 5609 5606 5604 5601 5598 5595 5592 5589 5587 5584 5581 5578 5575 5572 5569 5567 5565
5635 5636 5636 5635 5636 5635 5634 5634 5632 5631 5631 5629 5627 5626 5625 5623 5622 5620 5619 5620 5618 5616 5611 5608 5606 5603 5600 5597 5594 5591 5588 5584 5582 5579 5577 5574 5571 5567 5564 5562 5559 5557 5556
5628 5628 5628 5628 5628 5628 5627 5626 5625 5624 5622 5621 5621 5620 5618 5618 5616 5614 5612 5612 5610 5608 5604 5601 5597 5594 5590 5587 5584 5580 5577 5574 5571 5568 5566 5563 5559 5556 5553 5551 5549 5547 5545
5621 5620 5620 5619 5618 5618 5618 5617 5616 5616 5614 5613 5613 5612 5611 5609 5607 5605 5604 5602 5600 5600 5598 5595 5588 5584 5580 5576 5572 5568 5566 5563 5560 5557 5554 5551 5547 5545 5542 5540 5538 5536 5535
5611 5610 5610 5610 5609 5609 5609 5608 5607 5607 5606 5605 5604 5603 5601 5599 5597 5596 5594 5593 5591 5592 5592 5588 5580 5573 5569 5565 5561 5557 5554 5551 5548 5545 5542 5539 5536 5533 5531 5529 5527 5525 5524
5601 5600 5600 5599 5600 5600 5600 5599 5598 5598 5596 5595 5594 5593 5592 5589 5587 5585 5584 5582 5581 5580 5580 5577 5570 5563 5558 5553 5549 5546 5543 5539 5537 5534 5531 5528 5525 5523 5520 5518 5517 5515 5513
5589 5589 5589 5590 5590 5590 5590 5589 5589 5588 5587 5585 5584 5584 5581 5579 5577 5575 5572 5570 5569 5567 5566 5563 5556 5551 5546 5543 5539 5535 5531 5529 5526 5523 5520 5517 5515 5512 5510 5508 5506 5504 5503
5578 5578 5579 5579 5579 5579 5579 5580 5580 5578 5577 5576 5575 5573 5571 5568 5566 5564 5562 5559 5557 5554 5553 5551 5545 5539 5535 5531 5527 5524 5520 5517 5514 5511 5508 5506 5504 5501 5499 5497 5495 5493 5492
5566 5566 5567 5568 5568 5568 5568 5569 5569 5568 5567 5566 5564 5563 5561 5558 5556 5553 5551 5548 5546 5542 5540 5538 5535 5528 5523 5518 5515 5512 5509 5506 5503 5500 5498 5495 5493 5491 5489 5487 5484 5483 5481
5553 5553 5554 5555 5555 5555 5556 5556 5556 5556 5555 5554 5552 5551 5550 5548 5545 5543 5539 5537 5534 5531 5528 5526 5522 5517 5513 5508 5505 5503 5500 5496 5493 5490 5487 5485 5482 5480 5478 5476 5474 5473 5472
5539 5540 5540 5541 5542 5542 5543 5544 5543 5544 5543 5542 5539 5538 5537 5534 5532 5530 5528 5525 5522 5520 5517 5515 5511 5507 5503 5498 5496 5492 5489 5487 5483 5480 5478 5476 5473 5471 5469 5467 5465 5463 5462
5525 5526 5527 5528 5529 5529 5529 5530 5531 5531 5531 5529 5527 5525 5523 5521 5519 5517 5514 5512 5509 5508 5506 5503 5500 5498 5495 5490 5485 5481 5478 5476 5476 5470 5468 5467 5464 5462 5460 5458 5456 5454 5454
5512 5513 5514 5515 5517 5517 5516 5517 5517 5518 5518 5517 5515 5513 5511 5509 5506 5504 5501 5498 5496 5493 5492 5491 5489 5488 5484 5480 5474 5470 5467 5466 5464 5460 5457 5459 5455 5454 5451 5448 5446 5446 5445
5500 5501 5502 5503 5504 5504 5504 5504 5504 5504 5504 5503 5502 5501 5499 5496 5494 5492 5490 5487 5484 5481 5479 5477 5476 5474 5470 5466 5463 5459 5456 5453 5450 5447 5445 5448 5447 5445 5441 5440 5438 5437 5436
5488 5489 5489 5490 5492 5492 5491 5492 5492 5492 5491 5490 5489 5488 5487 5485 5483 5480 5478 5475 5472 5469 5466 5464 5462 5459 5456 5453 5451 5448 5445 5444 5444 5442 5437 5437 5437 5434 5433 5432 5429 5427 5426
5477 5477 5477 5479 5480 5481 5480 5480 5480 5481 5480 5478 5477 5476 5475 5473 5471 5468 5467 5465 5462 5459 5455 5452 5450 5447 5445 5442 5440 5438 5435 5433 5434 5433 5428 5425 5425 5422 5423 5422 5420 5419 5418